Regional Weather Roundup
Issued by NWS Kansas City/Pleasant Hill, MO

Home | Current Version | Previous Version | Text Only | Print | Product List | Glossary On
Versions: 1 2 3 4 5 6 7 8 9 10 11 12 13 14 15 16 17 18 19 20 21 22 23 24 25 26 27 28
000
ASUS43 KEAX 281910
RWREAX

WEATHER ROUNDUP FOR EASTERN KANSAS AND NORTHWEST MISSOURI
NATIONAL WEATHER SERVICE KANSAS CITY/PLEASANT HILL MO
200 PM CDT WED SEP 28 2016

KSZ040-057-103>105-MOZ028-029-037-043-282000-
...KANSAS CITY METROPOLITAN AREA...

CITY           SKY/WX    TMP DP  RH WIND       PRES   REMARKS
K.C. INTL      MOSUNNY   65  47  52 N16       30.12R
K.C. DOWNTOWN  SUNNY     67  47  48 N14G23    30.11R
LEES SUMMIT    SUNNY     65  47  52 N13G23    30.11R
OLATHE - IXD   SUNNY     66  47  50 N18       30.12R
OLATHE - OJC   SUNNY     65  45  48 N14G22    30.11R
LAWRENCE       SUNNY     67  48  50 N9G21     30.13R

$$

MOZ001>008-011>017-020>025-030>033-038>040-044>046-053-054-282000-
...NORTHERN AND CENTRAL MISSOURI...

CITY           SKY/WX    TMP DP  RH WIND       PRES   REMARKS
ST. JOSEPH     SUNNY     66  47  50 N15G22    30.14S
MOSBY          CLEAR     64  45  48 N14G21    30.11S
WHITEMAN AFB   MOSUNNY   66  47  50 N16G25    30.06S
CLINTON        SUNNY     66  48  52 N5G16     30.07S
SEDALIA        SUNNY     69  46  43 N15G22    30.08R
WARSAW         NOT AVBL
CHILLICOTHE      N/A     65  47  52 N9        30.12R
KIRKSVILLE     CLOUDY    61  46  57 N16       30.10R

$$

MOZ041-047>049-056>058-063>065-088>090-097-282000-
...EASTERN AND SOUTHERN MISSOURI...

CITY           SKY/WX    TMP DP  RH WIND       PRES   REMARKS
ST. LOUIS INTL MOSUNNY   69  44  40 N15       29.99R
SPIRIT OF STL  MOSUNNY   68  47  46 N15       29.99R
COLUMBIA       SUNNY     68  46  45 N16G24    30.05R
JEFFERSON CITY SUNNY     67  45  45 N8G20     30.04R
ROLLA          SUNNY     66  46  48 N15       30.01R
OSAGE BEACH    SUNNY     68  48  48 VRB3      30.04R
SPRINGFIELD    SUNNY     73  43  33 N15G24    30.02R
BRANSON        SUNNY     77  46  33 N12G18    30.00R
JOPLIN         SUNNY     73  44  35 N12G22    30.05R
WEST PLAINS    SUNNY     76  38  25 NW14G22   29.99R

$$

IAZ060-094-KSZ022-034>040-054-083-096-NEZ052-066-093-282000-
...KANSAS...SOUTHEAST NEBRASKA AND IOWA...

CITY           SKY/WX    TMP DP  RH WIND       PRES   REMARKS
TOPEKA         SUNNY     67  47  48 N14G22    30.13S
MANHATTAN      SUNNY     69  47  45 NE12G25   30.15S
EMPORIA        SUNNY     69  49  48 N12G21    30.12R
CHANUTE        LGT RAIN  73  46  38 N15G22    30.08R
WICHITA        SUNNY     76  43  30 N16       30.13S
OMAHA          MOSUNNY   63  47  55 N13       30.20S
LINCOLN        SUNNY     67  46  47 N12G23    30.21S
FALLS CITY     SUNNY     65  48  54 N12G21    30.15S
LAMONI         PTSUNNY   62  48  60 NW17G23   30.13R
DES MOINES     CLOUDY    59  48  67 NW15      30.14R

$$





USA.gov is the U.S. government's official web portal to all federal, state and local government web resources and services.